Location: Ferintosh
(52.7647°N, 112.9692°W)
Time: 19:50:36
(UTC+00:00)

Explorer 7 - Pass Details

Date: 21 May 2024
Orbit: 466 x 622 km, 50.3° (Epoch: 16 June)

Event Time Altitude Azimuth Distance (km) Brightness Sun altitude
Rises 13:03:07 0° 277° (W) 2,725 9.8 12.4°
Reaches altitude 10° 13:06:15 10° 251° (WSW) 1,865 8.9 12.8°
Maximum altitude 13:08:28 14° 220° (SW) 1,645 8.8 13.1°
Drops below altitude 10° 13:10:43 10° 189° (S) 1,908 9.4 13.5°
Sets 13:14:00 0° 164° (SSE) 2,837 10.5 13.9°
